Location: Kielce
(50.8833°N, 20.6167°E)
Time: 21:09:57
(UTC+02:00)

SR - Pass Details

Date: 27 April 2021
Orbit: 573 x 882 km, 66.7° (Epoch: 09 May)

Event Time Altitude Azimuth Distance (km) Brightness Sun altitude
Rises 16:29:41 0° 311° (NW) 3,448 ? 30.4°
Reaches altitude 10° 16:33:23 10° 289° (WNW) 2,463 ? 29.9°
Maximum altitude 16:36:17 14° 258° (WSW) 2,123 ? 29.4°
Drops below altitude 10° 16:39:05 10° 227° (SW) 2,365 ? 29.0°
Sets 16:42:31 0° 203° (SSW) 3,220 ? 28.5°
